Saint Augustine, FL

2:33 PM EST on February 09, 2016 (GMT -0500)
Saint Augustine

Weather History for KSGJ - January, 1999

Change the Weather History Date:

Saturday, January 30, 1999

  Actual Average Record
Temperature  
Mean Temperature 66 °F -  
Max Temperature 71 °F 62 °F 85 °F (1991)
Min Temperature 60 °F 45 °F 30 °F (2007)
Growing Degree Days 16 (Base 50)    
Moisture  
Dew Point 55 °F    
Average Humidity 67    
Maximum Humidity 77    
Minimum Humidity 60    
Precipitation  
Precipitation 0.00 in - - ()
Sea Level Pressure  
Sea Level Pressure 30.20 in    
Wind  
Wind Speed 4 mph (NNE)    
Max Wind Speed 14 mph    
Max Gust Speed 18 mph    
Visibility 9 miles    
Events      
Averages and records for this station are not official NWS values.
T = Trace of Precipitation, MM = Missing Value Source: NWS Daily Summary

Daily Weather History Graph

Daily Weather History Graph

Search for Another Location

Airport or City:

Trip Planner

Search our weather history database for the weather conditions in past years. The results will help you decide how hot, cold, wet, or windy it might be!

Date:

Astronomy

Jan. 30, 1999 Rise Set
Actual Time 7:16 AM EST 6:00 PM EST
Civil Twilight 6:51 AM EST 6:25 PM EST
Nautical Twilight 6:23 AM EST 6:54 PM EST
Astronomical Twilight 5:54 AM EST 7:22 PM EST
Moon 5:15 PM EST (1/30) 6:18 AM EST (1/30)
Length of Visible Light 11h 34m
Length of Day
10h 43m
Waxing Gibbous, 99% of the Moon is Illuminated
Jan 30
Waxing Gibbous
Jan 31
Full
Feb 8
Last Quarter
Feb 16
New
Feb 22
First Quarter

Hourly Weather History & Observations

Time (EST) Temp. Dew Point Humidity Pressure Visibility Wind Dir Wind Speed Gust Speed Precip Events Conditions
12:15 AM 66.2 °F 55.4 °F 68% 30.20 in 10.0 mi ESE 3.5 mph - N/A   Partly Cloudy
12:35 AM 66.2 °F 55.4 °F 68% 30.19 in 10.0 mi ESE 3.5 mph - N/A   Scattered Clouds
12:55 AM 66.2 °F 55.4 °F 68% 30.19 in 10.0 mi ESE 3.5 mph - N/A   Scattered Clouds
1:15 AM 66.2 °F 55.4 °F 68% 30.18 in 10.0 mi Calm Calm - N/A   Scattered Clouds
1:35 AM 66.2 °F 55.4 °F 68% 30.18 in 10.0 mi Calm Calm - N/A   Mostly Cloudy
1:55 AM 64.4 °F 55.4 °F 73% 30.18 in 10.0 mi Calm Calm - N/A   Mostly Cloudy
2:15 AM 64.4 °F 55.4 °F 73% 30.18 in 10.0 mi Calm Calm - N/A   Partly Cloudy
2:35 AM 64.4 °F 55.4 °F 73% 30.18 in 10.0 mi Calm Calm - N/A   Mostly Cloudy
2:55 AM 62.6 °F 53.6 °F 72% 30.17 in 10.0 mi Calm Calm - N/A   Scattered Clouds
3:15 AM 62.6 °F 53.6 °F 72% 30.17 in 10.0 mi Calm Calm - N/A   Clear
3:35 AM 60.8 °F 51.8 °F 72% 30.17 in 10.0 mi Calm Calm - N/A   Clear
3:55 AM 60.8 °F 51.8 °F 72% 30.16 in 10.0 mi Calm Calm - N/A   Clear
4:15 AM 60.8 °F 51.8 °F 72% 30.17 in 10.0 mi Calm Calm - N/A   Scattered Clouds
4:35 AM 60.8 °F 51.8 °F 72% 30.17 in 10.0 mi Calm Calm - N/A   Scattered Clouds
4:55 AM 60.8 °F 51.8 °F 72% 30.16 in 10.0 mi Calm Calm - N/A   Clear
5:15 AM 60.8 °F 50.0 °F 68% 30.17 in 10.0 mi Calm Calm - N/A   Scattered Clouds
5:35 AM 60.8 °F 51.8 °F 72% 30.17 in 10.0 mi Calm Calm - N/A   Mostly Cloudy
5:55 AM 60.8 °F 51.8 °F 72% 30.18 in 10.0 mi Calm Calm - N/A   Mostly Cloudy
6:15 AM 60.8 °F 51.8 °F 72% 30.19 in 9.0 mi NNW 3.5 mph - N/A   Scattered Clouds
6:35 AM 60.8 °F 51.8 °F 72% 30.19 in 7.0 mi Calm Calm - N/A   Partly Cloudy
6:55 AM 62.6 °F 51.8 °F 68% 30.20 in 10.0 mi Calm Calm - N/A   Partly Cloudy
7:15 AM 60.8 °F 51.8 °F 72% 30.21 in 7.0 mi Calm Calm - N/A   Partly Cloudy
7:35 AM 60.8 °F 51.8 °F 72% 30.21 in 10.0 mi Calm Calm - N/A   Scattered Clouds
7:55 AM 60.8 °F 53.6 °F 77% 30.22 in 10.0 mi Calm Calm - N/A   Scattered Clouds
8:15 AM 62.6 °F 53.6 °F 72% 30.23 in 10.0 mi Calm Calm - N/A   Scattered Clouds
8:35 AM 62.6 °F 53.6 °F 72% 30.24 in 7.0 mi NW 4.6 mph - N/A   Scattered Clouds
8:55 AM 66.2 °F 57.2 °F 73% 30.24 in 10.0 mi Calm Calm - N/A   Mostly Cloudy
9:15 AM 68.0 °F 57.2 °F 68% 30.24 in 10.0 mi Calm Calm - N/A   Scattered Clouds
9:35 AM 69.8 °F 57.2 °F 64% 30.25 in 10.0 mi North 3.5 mph - N/A   Partly Cloudy
9:55 AM 71.6 °F 59.0 °F 64% 30.25 in 10.0 mi NNE 6.9 mph - N/A   Clear
10:15 AM 69.8 °F 57.2 °F 64% 30.25 in 10.0 mi NNE 9.2 mph - N/A   Clear
10:35 AM 69.8 °F 57.2 °F 64% 30.26 in 10.0 mi North 10.4 mph - N/A   Clear
10:55 AM 71.6 °F 57.2 °F 60% 30.26 in 10.0 mi NNE 10.4 mph - N/A   Clear
11:15 AM 71.6 °F 57.2 °F 60% 30.25 in 10.0 mi North 9.2 mph - N/A   Clear
11:35 AM 71.6 °F 57.2 °F 60% 30.24 in 9.0 mi NNE 11.5 mph - N/A   Clear
11:55 AM 71.6 °F 57.2 °F 60% 30.23 in 8.0 mi North 10.4 mph - N/A   Clear
12:15 PM 69.8 °F 57.2 °F 64% 30.22 in 7.0 mi NNE 11.5 mph - N/A   Clear
12:35 PM 69.8 °F 57.2 °F 64% 30.22 in 7.0 mi NNE 11.5 mph - N/A   Clear
12:55 PM 71.6 °F 57.2 °F 60% 30.21 in 6.0 mi North 12.7 mph - N/A   Partly Cloudy
1:15 PM 69.8 °F 55.4 °F 60% 30.21 in 7.0 mi North 12.7 mph - N/A   Partly Cloudy
1:35 PM 69.8 °F 57.2 °F 64% 30.20 in 5.0 mi North 12.7 mph - N/A   Mostly Cloudy
1:55 PM 69.8 °F 57.2 °F 64% 30.19 in 7.0 mi NNE 10.4 mph - N/A   Mostly Cloudy
2:15 PM 71.6 °F 57.2 °F 60% 30.19 in 7.0 mi NNE 13.8 mph - N/A   Partly Cloudy
2:35 PM 71.6 °F 59.0 °F 64% 30.19 in 8.0 mi NNE 13.8 mph - N/A   Clear
2:55 PM 69.8 °F 57.2 °F 64% 30.19 in 7.0 mi NNE 12.7 mph - N/A   Partly Cloudy
3:15 PM 69.8 °F 57.2 °F 64% 30.18 in 7.0 mi NNE 13.8 mph - N/A   Scattered Clouds
3:35 PM 71.6 °F 57.2 °F 60% 30.17 in 8.0 mi NNE 13.8 mph - N/A   Partly Cloudy
3:55 PM 69.8 °F 57.2 °F 64% 30.17 in 9.0 mi NNE 13.8 mph - N/A   Partly Cloudy
4:15 PM 69.8 °F 57.2 °F 64% 30.18 in 10.0 mi NNE 12.7 mph - N/A   Partly Cloudy
4:35 PM 68.0 °F 55.4 °F 64% 30.17 in 7.0 mi NNE 12.7 mph 18.4 mph N/A   Partly Cloudy
4:55 PM 68.0 °F 57.2 °F 68% 30.17 in 7.0 mi NE 12.7 mph 18.4 mph N/A   Partly Cloudy
5:15 PM 68.0 °F 57.2 °F 68% 30.18 in 5.0 mi NNE 10.4 mph - N/A   Scattered Clouds
5:35 PM 68.0 °F 57.2 °F 68% 30.18 in 7.0 mi NNE 12.7 mph - N/A   Scattered Clouds
5:55 PM 68.0 °F 55.4 °F 64% 30.18 in 10.0 mi NE 10.4 mph - N/A   Mostly Cloudy
6:15 PM 66.2 °F 55.4 °F 68% 30.18 in 10.0 mi NE 11.5 mph - N/A   Scattered Clouds
6:35 PM 66.2 °F 55.4 °F 68% 30.19 in 10.0 mi NE 9.2 mph - N/A   Clear
6:55 PM 66.2 °F 55.4 °F 68% 30.20 in 10.0 mi NE 10.4 mph - N/A   Clear
7:15 PM 66.2 °F 55.4 °F 68% 30.20 in 10.0 mi NNE 9.2 mph - N/A   Clear
7:35 PM 66.2 °F 55.4 °F 68% 30.21 in 10.0 mi NNE 9.2 mph - N/A   Clear
7:55 PM 66.2 °F 55.4 °F 68% 30.21 in 10.0 mi North 10.4 mph - N/A   Scattered Clouds
8:15 PM 66.2 °F 55.4 °F 68% 30.20 in 7.0 mi North 13.8 mph - N/A   Partly Cloudy
8:35 PM 64.4 °F 53.6 °F 68% 30.21 in 6.0 mi North 12.7 mph - N/A   Partly Cloudy
8:55 PM 64.4 °F 53.6 °F 68% 30.21 in 7.0 mi North 11.5 mph - N/A   Scattered Clouds
9:15 PM 64.4 °F 53.6 °F 68% 30.22 in 7.0 mi North 10.4 mph - N/A   Scattered Clouds
9:35 PM 64.4 °F 53.6 °F 68% 30.22 in 7.0 mi North 10.4 mph - N/A   Clear
9:55 PM 64.4 °F 55.4 °F 73% 30.22 in 8.0 mi North 9.2 mph - N/A   Scattered Clouds
10:15 PM 64.4 °F 55.4 °F 73% 30.22 in 9.0 mi North 11.5 mph - N/A   Scattered Clouds
10:35 PM 64.4 °F 53.6 °F 68% 30.21 in 7.0 mi NNW 9.2 mph - N/A   Partly Cloudy
10:55 PM 64.4 °F 53.6 °F 68% 30.21 in 7.0 mi NNW 8.1 mph - N/A   Partly Cloudy
11:15 PM 64.4 °F 53.6 °F 68% 30.21 in 7.0 mi NNW 8.1 mph - N/A   Scattered Clouds
11:35 PM 64.4 °F 55.4 °F 73% 30.20 in 6.0 mi North 5.8 mph - N/A   Partly Cloudy
11:55 PM 64.4 °F 55.4 °F 73% 30.21 in 6.0 mi WNW 5.8 mph - N/A   Partly Cloudy